Weather History for Porterville, CA

Change the Weather History Date:

Friday, May 2, 2014

  Actual Average Record
Temperature  
Mean Temperature 73 °F -  
Max Temperature 91 °F 82 °F 94 °F (1985)
Min Temperature 55 °F 51 °F 38 °F (1964)
Cooling Degree Days 8    
Growing Degree Days 23 (Base 50)    
Moisture  
Dew Point 44 °F    
Average Humidity 38    
Maximum Humidity 67    
Minimum Humidity 15    
Precipitation  
Precipitation 0.00 in - - ()
Sea Level Pressure  
Sea Level Pressure 30.01 in    
Wind  
Wind Speed 7 mph (SSW)    
Max Wind Speed 12 mph    
Max Gust Speed -    
Visibility 10 miles    
Events      
Averages and records for this station are not official NWS values.
T = Trace of Precipitation, MM = Missing Value Source: NWS Daily Summary

Daily Weather History Graph

Daily Weather History Graph

Search for Another Location

Airport:

Trip Planner

Search our weather history database for the weather conditions in past years. The results will help you decide how hot, cold, wet, or windy it might be!

Date:

Astronomy

May. 02, 2014 Rise Set
Actual Time 6:02 AM PDT 7:44 PM PDT
Civil Twilight 5:34 AM PDT 8:12 PM PDT
Nautical Twilight 5:01 AM PDT 8:45 PM PDT
Astronomical Twilight 4:26 AM PDT 9:20 PM PDT
Moon 8:45 AM PDT (5/2) 11:08 PM PDT (5/2)
Length of Visible Light 14h 37m
Length of Day
13h 42m
Waxing Crescent, 13% of the Moon is Illuminated
May 2
Waxing Crescent
May 6
First Quarter
May 14
Full
May 21
Last Quarter
May 28
New

Hourly Weather History & Observations

Time (PDT) Temp. Dew Point Humidity Pressure Visibility Wind Dir Wind Speed Gust Speed Precip Events Conditions
12:15 AM 68.0 °F 46.4 °F 46% 30.04 in 10.0 mi South 5.8 mph - N/A   Clear
12:35 AM 66.2 °F 46.4 °F 49% 30.04 in 10.0 mi SSW 8.1 mph - N/A   Clear
12:55 AM 66.2 °F 46.4 °F 49% 30.05 in 10.0 mi SSW 4.6 mph - N/A   Clear
1:15 AM 64.4 °F 46.4 °F 52% 30.04 in 10.0 mi SSE 4.6 mph - N/A   Clear
1:35 AM 62.6 °F 46.4 °F 55% 30.03 in 10.0 mi SE 9.2 mph - N/A   Clear
1:55 AM 62.6 °F 46.4 °F 55% 30.04 in 10.0 mi SE 8.1 mph - N/A   Clear
2:15 AM 62.6 °F 46.4 °F 55% 30.03 in 10.0 mi SSE 5.8 mph - N/A   Clear
2:35 AM 62.6 °F 44.6 °F 52% 30.04 in 10.0 mi SSE 6.9 mph - N/A   Clear
2:55 AM 62.6 °F 46.4 °F 55% 30.03 in 10.0 mi SSE 8.1 mph - N/A   Clear
3:15 AM 62.6 °F 46.4 °F 55% 30.03 in 10.0 mi SSE 6.9 mph - N/A   Clear
3:35 AM 60.8 °F 46.4 °F 59% 30.04 in 10.0 mi SSE 4.6 mph - N/A   Clear
3:55 AM 60.8 °F 44.6 °F 55% 30.04 in 10.0 mi South 3.5 mph - N/A   Clear
4:15 AM 59.0 °F 44.6 °F 59% 30.04 in 10.0 mi SSE 5.8 mph - N/A   Clear
4:35 AM 57.2 °F 44.6 °F 63% 30.05 in 10.0 mi South 6.9 mph - N/A   Clear
4:55 AM 59.0 °F 44.6 °F 59% 30.05 in 10.0 mi South 8.1 mph - N/A   Clear
5:15 AM 57.2 °F 46.4 °F 67% 30.04 in 10.0 mi SE 9.2 mph - N/A   Clear
5:35 AM 57.2 °F 44.6 °F 63% 30.05 in 10.0 mi SE 8.1 mph - N/A   Clear
5:55 AM 55.4 °F 44.6 °F 67% 30.05 in 10.0 mi SE 5.8 mph - N/A   Clear
6:15 AM 55.4 °F 44.6 °F 67% 30.06 in 10.0 mi SSE 4.6 mph - N/A   Clear
6:35 AM 55.4 °F 44.6 °F 67% 30.06 in 10.0 mi SE 6.9 mph - N/A   Clear
6:55 AM 57.2 °F 46.4 °F 67% 30.06 in 10.0 mi SSE 6.9 mph - N/A   Clear
7:15 AM 62.6 °F 46.4 °F 55% 30.06 in 10.0 mi SSE 6.9 mph - N/A   Clear
7:35 AM 66.2 °F 46.4 °F 49% 30.07 in 10.0 mi South 6.9 mph - N/A   Clear
7:55 AM 68.0 °F 44.6 °F 43% 30.07 in 10.0 mi South 9.2 mph - N/A   Clear
8:15 AM 69.8 °F 44.6 °F 40% 30.07 in 10.0 mi South 10.4 mph - N/A   Clear
8:35 AM 71.6 °F 44.6 °F 38% 30.07 in 10.0 mi South 9.2 mph - N/A   Clear
8:55 AM 73.4 °F 44.6 °F 36% 30.07 in 10.0 mi SSW 10.4 mph - N/A   Clear
9:15 AM 75.2 °F 46.4 °F 36% 30.07 in 10.0 mi SW 9.2 mph - N/A   Clear
9:35 AM 77.0 °F 44.6 °F 32% 30.07 in 10.0 mi SW 10.4 mph - N/A   Clear
9:55 AM 78.8 °F 44.6 °F 30% 30.06 in 10.0 mi South 10.4 mph - N/A   Clear
10:15 AM 78.8 °F 44.6 °F 30% 30.06 in 10.0 mi SW 10.4 mph - N/A   Clear
10:35 AM 80.6 °F 46.4 °F 30% 30.06 in 10.0 mi WSW 8.1 mph - N/A   Clear
10:55 AM 80.6 °F 44.6 °F 28% 30.06 in 10.0 mi WSW 9.2 mph - N/A   Clear
11:15 AM 80.6 °F 44.6 °F 28% 30.06 in 10.0 mi WSW 8.1 mph - N/A   Clear
11:35 AM 82.4 °F 42.8 °F 25% 30.06 in 10.0 mi West 8.1 mph - N/A   Clear
11:55 AM 82.4 °F 42.8 °F 25% 30.06 in 10.0 mi WSW 6.9 mph - N/A   Clear
12:15 PM 84.2 °F 42.8 °F 23% 30.05 in 10.0 mi West 8.1 mph - N/A   Clear
12:35 PM 84.2 °F 44.6 °F 25% 30.05 in 10.0 mi West 8.1 mph - N/A   Clear
12:55 PM 86.0 °F 44.6 °F 23% 30.04 in 10.0 mi WSW 9.2 mph - N/A   Clear
1:15 PM 86.0 °F 44.6 °F 23% 30.03 in 10.0 mi WNW 8.1 mph - N/A   Clear
1:35 PM 87.8 °F 41.0 °F 19% 30.02 in 10.0 mi WNW 9.2 mph - N/A   Clear
1:55 PM 87.8 °F 39.2 °F 18% 30.01 in 10.0 mi West 4.6 mph - N/A   Clear
2:15 PM 87.8 °F 41.0 °F 19% 30.01 in 10.0 mi WNW 5.8 mph - N/A   Clear
2:35 PM 89.6 °F 39.2 °F 17% 30.00 in 10.0 mi West 8.1 mph - N/A   Clear
2:55 PM 89.6 °F 39.2 °F 17% 29.99 in 10.0 mi NW 8.1 mph - N/A   Clear
3:15 PM 89.6 °F 39.2 °F 17% 29.98 in 10.0 mi WNW 6.9 mph - N/A   Clear
3:35 PM 89.6 °F 39.2 °F 17% 29.97 in 10.0 mi NW 6.9 mph - N/A   Clear
3:55 PM 89.6 °F 41.0 °F 18% 29.97 in 10.0 mi WNW 8.1 mph - N/A   Clear
4:15 PM 91.4 °F 39.2 °F 16% 29.96 in 10.0 mi WNW 10.4 mph - N/A   Clear
4:35 PM 91.4 °F 42.8 °F 18% 29.96 in 10.0 mi West 10.4 mph - N/A   Clear
5:15 PM 91.4 °F 44.6 °F 20% 29.95 in 10.0 mi NW 8.1 mph - N/A   Clear
5:35 PM 91.4 °F 42.8 °F 18% 29.95 in 10.0 mi NW 11.5 mph - N/A   Clear
5:55 PM 91.4 °F 42.8 °F 18% 29.94 in 10.0 mi NW 11.5 mph - N/A   Clear
6:15 PM 91.4 °F 37.4 °F 15% 29.94 in 10.0 mi NW 8.1 mph - N/A   Clear
6:35 PM 89.6 °F 37.4 °F 16% 29.93 in 10.0 mi NNW 6.9 mph - N/A   Clear
6:55 PM 89.6 °F 39.2 °F 17% 29.92 in 10.0 mi North 5.8 mph - N/A   Clear
7:15 PM 87.8 °F 42.8 °F 21% 29.92 in 10.0 mi North 3.5 mph - N/A   Clear
7:35 PM 82.4 °F 44.6 °F 26% 29.93 in 10.0 mi WNW 5.8 mph - N/A   Clear
7:55 PM 80.6 °F 46.4 °F 30% 29.93 in 10.0 mi WNW 5.8 mph - N/A   Clear
8:15 PM 78.8 °F 46.4 °F 32% 29.93 in 10.0 mi Calm Calm - N/A   Clear
8:35 PM 77.0 °F 46.4 °F 34% 29.93 in 10.0 mi West 3.5 mph - N/A   Clear
8:55 PM 73.4 °F 48.2 °F 41% 29.94 in 10.0 mi West 3.5 mph - N/A   Clear
9:15 PM 71.6 °F 48.2 °F 43% 29.95 in 10.0 mi Calm Calm - N/A   Clear
9:35 PM 71.6 °F 48.2 °F 43% 29.96 in 10.0 mi East 5.8 mph - N/A   Clear
9:55 PM 69.8 °F 46.4 °F 43% 29.96 in 10.0 mi SE 4.6 mph - N/A   Clear
10:15 PM 71.6 °F 44.6 °F 38% 29.96 in 10.0 mi SE 3.5 mph - N/A   Clear
10:35 PM 69.8 °F 44.6 °F 40% 29.96 in 10.0 mi SE 3.5 mph - N/A   Clear
10:55 PM 69.8 °F 44.6 °F 40% 29.96 in 10.0 mi SSE 5.8 mph - N/A   Clear
11:15 PM 69.8 °F 42.8 °F 38% 29.96 in 10.0 mi SE 4.6 mph - N/A   Clear
11:35 PM 68.0 °F 42.8 °F 40% 29.96 in 10.0 mi SSE 5.8 mph - N/A   Clear
11:55 PM 66.2 °F 44.6 °F 46% 29.96 in 10.0 mi SE 4.6 mph - N/A   Clear